TimeEST,TemperatureF,Dew PointF,Humidity,Sea Level PressureIn,VisibilityMPH,Wind Direction,Wind SpeedMPH,Gust SpeedMPH,PrecipitationIn,Events,Conditions,WindDirDegrees,DateUTC
12:14 AM,22.1,17.2,82,29.91,5.0,WNW,3.5,-,N/A,Snow,Light Snow,300,2012-01-14 05:14:00
12:35 AM,21.7,17.6,84,29.91,10.0,Calm,Calm,-,N/A,Snow,Light Snow,0,2012-01-14 05:35:00
12:54 AM,21.7,17.6,84,29.92,10.0,Calm,Calm,-,N/A,,Overcast,0,2012-01-14 05:54:00
1:14 AM,21.7,17.8,85,29.92,10.0,Calm,Calm,-,N/A,,Overcast,0,2012-01-14 06:14:00
1:35 AM,21.7,18.0,85,29.92,10.0,Calm,Calm,-,N/A,,Overcast,0,2012-01-14 06:35:00
1:54 AM,21.7,17.8,85,29.93,10.0,Calm,Calm,-,N/A,,Overcast,0,2012-01-14 06:54:00
2:15 AM,21.7,18.0,85,29.93,10.0,West,4.6,-,N/A,,Overcast,270,2012-01-14 07:15:00
2:35 AM,21.9,17.6,83,29.95,5.0,WNW,4.6,-,N/A,Snow,Light Snow,290,2012-01-14 07:35:00
2:54 AM,21.9,17.6,83,29.95,4.0,West,3.5,-,N/A,Snow,Light Snow,260,2012-01-14 07:54:00
3:15 AM,21.0,17.4,86,29.96,5.0,West,4.6,-,N/A,Snow,Light Snow,260,2012-01-14 08:15:00
3:35 AM,21.2,17.4,85,29.96,2.5,West,5.8,-,N/A,Snow,Light Snow,270,2012-01-14 08:35:00
3:54 AM,21.0,17.6,87,29.96,4.0,West,4.6,-,N/A,Snow,Light Snow,270,2012-01-14 08:54:00
4:15 AM,21.0,17.6,87,29.96,4.0,WNW,3.5,-,N/A,Snow,Light Snow,290,2012-01-14 09:15:00
4:35 AM,21.0,17.4,86,29.96,7.0,Calm,Calm,-,N/A,Snow,Light Snow,0,2012-01-14 09:35:00
4:54 AM,20.8,17.2,86,29.96,10.0,Calm,Calm,-,N/A,,Overcast,0,2012-01-14 09:54:00
5:15 AM,20.1,17.1,88,29.96,7.0,Calm,Calm,-,N/A,,Overcast,0,2012-01-14 10:15:00
5:34 AM,20.3,17.4,89,29.97,7.0,Calm,Calm,-,N/A,Snow,Light Snow,0,2012-01-14 10:34:00
5:54 AM,20.1,17.4,89,29.97,5.0,Calm,Calm,-,N/A,Snow,Light Snow,0,2012-01-14 10:54:00
6:15 AM,20.3,17.6,89,29.98,4.0,Calm,Calm,-,N/A,Snow,Light Snow,0,2012-01-14 11:15:00
6:34 AM,20.3,17.6,89,29.99,3.0,Calm,Calm,-,N/A,Snow,Light Snow,0,2012-01-14 11:34:00
6:55 AM,22.3,18.0,83,29.99,2.0,Calm,Calm,-,N/A,Snow,Light Snow,0,2012-01-14 11:55:00
7:15 AM,20.1,17.6,90,30.00,1.8,Calm,Calm,-,N/A,Snow,Light Snow,0,2012-01-14 12:15:00
7:34 AM,19.9,17.4,90,30.00,1.8,Calm,Calm,-,N/A,Snow,Light Snow,0,2012-01-14 12:34:00
7:55 AM,19.9,17.2,89,30.00,2.0,Calm,Calm,-,N/A,Snow,Light Snow,0,2012-01-14 12:55:00
8:34 AM,20.7,17.4,87,30.02,1.2,Calm,Calm,-,N/A,Snow,Light Snow,0,2012-01-14 13:34:00
8:55 AM,20.1,18.0,91,30.02,2.0,Calm,Calm,-,N/A,Snow,Light Snow,0,2012-01-14 13:55:00
9:15 AM,20.3,18.3,92,30.03,1.2,Calm,Calm,-,N/A,Snow,Light Snow,0,2012-01-14 14:15:00
9:34 AM,20.7,18.5,91,30.03,1.0,Calm,Calm,-,N/A,Snow,Light Snow,0,2012-01-14 14:34:00
9:55 AM,21.0,18.9,91,30.04,1.2,Calm,Calm,-,N/A,Snow,Light Snow,0,2012-01-14 14:55:00
10:14 AM,21.2,18.5,89,30.05,1.5,NE,3.5,-,N/A,Snow,Light Snow,50,2012-01-14 15:14:00
10:34 AM,21.2,18.1,88,30.05,2.0,ENE,4.6,-,N/A,Snow,Light Snow,60,2012-01-14 15:34:00
10:55 AM,21.7,18.1,86,30.06,2.0,NE,3.5,-,N/A,Snow,Light Snow,50,2012-01-14 15:55:00
11:14 AM,21.7,18.0,85,30.06,3.0,NE,3.5,-,N/A,Snow,Light Snow,50,2012-01-14 16:14:00
11:34 AM,21.6,17.4,84,30.06,4.0,NE,3.5,-,N/A,Snow,Light Snow,40,2012-01-14 16:34:00
11:55 AM,21.6,17.2,83,30.05,5.0,NE,3.5,-,N/A,Snow,Light Snow,40,2012-01-14 16:55:00
12:14 PM,21.6,16.7,82,30.05,5.0,NE,3.5,-,N/A,Snow,Light Snow,40,2012-01-14 17:14:00
12:35 PM,22.1,16.9,80,30.04,5.0,NNE,3.5,-,N/A,Snow,Light Snow,30,2012-01-14 17:35:00
12:55 PM,22.5,16.9,79,30.04,7.0,Calm,Calm,-,N/A,Snow,Light Snow,0,2012-01-14 17:55:00
1:14 PM,22.6,16.7,78,30.04,7.0,Calm,Calm,-,N/A,Snow,Light Snow,0,2012-01-14 18:14:00
1:35 PM,23.0,16.9,77,30.04,7.0,Calm,Calm,-,N/A,Snow,Light Snow,0,2012-01-14 18:35:00
1:55 PM,23.2,16.7,76,30.04,10.0,Calm,Calm,-,N/A,,Overcast,0,2012-01-14 18:55:00
2:14 PM,23.0,16.9,77,30.04,7.0,North,3.5,-,N/A,Snow,Light Snow,350,2012-01-14 19:14:00
2:35 PM,23.0,16.7,77,30.05,7.0,North,3.5,-,N/A,,Overcast,10,2012-01-14 19:35:00
2:55 PM,23.0,16.5,76,30.05,10.0,North,4.6,-,N/A,Snow,Light Snow,350,2012-01-14 19:55:00
3:14 PM,22.8,16.7,77,30.05,10.0,North,5.8,-,N/A,,Overcast,350,2012-01-14 20:14:00
3:35 PM,22.5,16.5,78,30.06,7.0,North,3.5,-,N/A,Snow,Light Snow,360,2012-01-14 20:35:00
4:15 PM,21.2,16.0,80,30.06,4.0,NNE,5.8,-,N/A,Snow,Light Snow,20,2012-01-14 21:15:00
4:35 PM,21.2,15.6,79,30.07,7.0,NNE,4.6,-,N/A,Snow,Light Snow,30,2012-01-14 21:35:00
4:54 PM,21.0,15.3,78,30.08,5.0,NE,4.6,-,N/A,Snow,Light Snow,50,2012-01-14 21:54:00
5:15 PM,20.8,15.1,78,30.09,7.0,NE,4.6,-,N/A,Snow,Light Snow,40,2012-01-14 22:15:00
5:35 PM,20.5,14.9,79,30.10,7.0,NNE,4.6,-,N/A,Snow,Light Snow,20,2012-01-14 22:35:00
5:54 PM,20.3,14.4,78,30.11,10.0,Calm,Calm,-,N/A,,Overcast,0,2012-01-14 22:54:00
6:15 PM,20.1,14.0,77,30.11,10.0,NE,4.6,-,N/A,,Overcast,50,2012-01-14 23:15:00
6:34 PM,20.1,14.0,77,30.12,10.0,Calm,Calm,-,N/A,,Overcast,0,2012-01-14 23:34:00
6:55 PM,19.9,13.8,77,30.13,10.0,NNE,3.5,-,N/A,,Overcast,30,2012-01-14 23:55:00
7:15 PM,19.8,13.6,77,30.14,10.0,NNE,3.5,-,N/A,,Overcast,30,2012-01-15 00:15:00
7:34 PM,19.4,13.1,76,30.14,10.0,NE,4.6,-,N/A,,Overcast,50,2012-01-15 00:34:00
7:55 PM,19.2,12.6,75,30.15,10.0,NNE,4.6,-,N/A,,Overcast,30,2012-01-15 00:55:00
8:15 PM,19.2,12.6,75,30.16,10.0,Calm,Calm,-,N/A,,Overcast,0,2012-01-15 01:15:00
8:34 PM,19.0,12.6,76,30.16,10.0,NE,3.5,-,N/A,,Overcast,50,2012-01-15 01:34:00
8:55 PM,19.0,12.9,77,30.17,10.0,NE,4.6,-,N/A,,Overcast,50,2012-01-15 01:55:00
9:14 PM,19.0,12.7,76,30.17,10.0,ENE,5.8,-,N/A,,Overcast,70,2012-01-15 02:14:00
9:55 PM,18.9,12.7,77,30.18,10.0,Calm,Calm,-,N/A,Snow,Light Snow,0,2012-01-15 02:55:00
10:15 PM,18.5,12.6,78,30.19,10.0,NE,3.5,-,N/A,,Overcast,50,2012-01-15 03:15:00
10:35 PM,18.5,12.6,78,30.19,10.0,Calm,Calm,-,N/A,,Overcast,0,2012-01-15 03:35:00
10:55 PM,18.7,12.9,78,30.19,10.0,ENE,3.5,-,N/A,Snow,Light Snow,60,2012-01-15 03:55:00
11:14 PM,18.9,12.9,78,30.20,7.0,Calm,Calm,-,N/A,Snow,Light Snow,0,2012-01-15 04:14:00
11:35 PM,18.7,13.3,79,30.20,7.0,Calm,Calm,-,N/A,Snow,Light Snow,0,2012-01-15 04:35:00
11:55 PM,18.5,13.5,81,30.21,7.0,Calm,Calm,-,N/A,Snow,Light Snow,0,2012-01-15 04:55:00